Regional Weather Roundup
Issued by NWS

Home | Current Version | Previous Version | Graphics & Text | Print | Product List | Glossary On
Versions: 1 2 3 4 5 6 7 8 9 10 11 12 13 14 15 16 17 18 19 20 21 22 23 24 25 26 27 28 29 30 31 32 33 34 35 36 37 38 39 40 41 42 43 44 45 46 47 48 49 50
000
ASUS43 KMPX 260210
RWRMN
WEATHER ROUNDUP FOR MINNESOTA
NATIONAL WEATHER SERVICE TWIN CITIES/CHANHASSEN MN
900 PM CDT SUN JUN 25 2017


NOTE: "FAIR" INDICATES FEW OR NO CLOUDS BELOW 12,000 FEET WITH NO
SIGNIFICANT WEATHER AND/OR OBSTRUCTIONS TO VISIBILITY. N/A MEANS
CURRENT SKY AND/OR WEATHER CONDITIONS ARE NOT AVAILABLE.

MNZ060>063-068>070-260300-
   Twin Cities Metro

CITY           SKY/WX    TMP DP  RH WIND       PRES   REMARKS
TWIN CITIES    PTCLDY    62  40  44 W8        30.12S
ST PAUL        CLEAR     62  40  44 NW9       30.12S
CRYSTAL        PTCLDY    62  37  39 NW6       30.11S
BLAINE         PTCLDY    61  41  48 NW7       30.11F
LAKEVILLE      CLOUDY    61  43  51 W5        30.13S
EDEN PRAIRIE   MOCLDY    63  41  44 W7        30.12S
SOUTH ST PAUL  CLEAR     63  38  39 NW6       30.12S
LAKE ELMO      FAIR      61  41  48 NW5       30.12S
$$
MNZ001>005-007-008-013>017-022>024-027-028-260300-
   Northwest Minnesota

CITY           SKY/WX    TMP DP  RH WIND       PRES   REMARKS
BEMIDJI        CLEAR     51  44  76 NW5       30.15S
HALLOCK        CLEAR     57  46  67 N7        30.18S
ROSEAU         CLEAR     54  46  76 W6        30.17S
WARROAD        CLEAR     55  46  71 W5        30.16S
THIEF RVR FALL PTCLDY    55  46  71 N6        30.19R
CROOKSTON      CLEAR     57  45  62 N6        30.19S
FOSSTON        CLEAR     50  45  81 N5        30.18R
DETROIT LAKES  CLEAR     59  41  51 N6        30.18R
MOORHEAD       CLEAR     63  39  42 N13       30.18R
PARK RAPIDS    CLEAR     58  40  51 N10       30.15R
MAHNOMEN       FAIR      57  43  59 N7        30.17S
$$
MNZ006-009>011-018-025>026-260300-
   North Central Minnesota

CITY           SKY/WX    TMP DP  RH WIND       PRES   REMARKS
BAUDETTE       MOCLDY    54  44  69 N5        30.14S
FLAG ISLAND    CLEAR     57  46  67 W5        30.13S
INTL FALLS     CLEAR     50  45  83 CALM      30.12F
WASKISH        MOCLDY    54  45  71 NE7       30.15R
BIG FORK       PTCLDY    50  48  93 CALM      30.14R
LONGVILLE      CLEAR     54  45  71 CALM      30.14S
GRAND RAPIDS   LGT RAIN  50  46  86 N5        30.15S
CRANE LAKE     PTCLDY    45  45 100 CALM      30.13F
ORR            PTCLDY    46  43  87 CALM      30.10S
COOK           CLEAR     48  45  87 CALM      30.13R
WALKER         FAIR      52  41  66 NW6       30.15S
$$
MNZ012-019>021-037-260300-
   Northeast Minnesota

CITY           SKY/WX    TMP DP  RH WIND       PRES   REMARKS
DULUTH         PTCLDY    51  44  77 NW8       30.09R
ELY            CLOUDY    46  45  93 N3        30.10F
HIBBING        PTCLDY    48  46  93 NW5       30.11F
EVELETH        CLEAR     53  42  66 N6        30.12S
DULUTH HARBOR  PTCLDY    57  46  67 NW12      30.10R
TWO HARBORS    CLEAR     54  46  76 N6        30.07R
SILVER BAY     PTCLDY    52  46  82 CALM      30.06S
GRAND MARAIS     N/A     49  46  90 N10G24    30.03S
G MARAIS ARPRT RAIN      43  39  87 NW9G16    30.05F
$$
MNZ029>031-032-039>041-046>048-054>057-064-260300-
   West Central Minnesota

CITY           SKY/WX    TMP DP  RH WIND       PRES   REMARKS
FERGUS FALLS   CLOUDY    61  43  51 N6        30.14S
WHEATON        CLOUDY    57  52  82 CALM      30.19S
MORRIS         CLOUDY    55  52  88 CALM      30.16F
ALEXANDRIA     PTCLDY    60  42  51 NW9       30.17S
ELBOW LAKE     MOCLDY    57  48  71 NW8       30.17S
WADENA         CLEAR     55  43  62 NW5       30.15S
GLENWOOD       PTCLDY    57  46  67 W9        30.16F
APPLETON       PTCLDY    61  46  59 N5        30.17S
BENSON         LGT RAIN  55  50  82 NE6       30.18F
ORTONVILLE     CLOUDY    61  46  59 N3        30.18S
MADISON        CLOUDY    64  46  52 NW6       30.17S
WILLMAR        MOCLDY    61  48  63 W5        30.18S
$$
MNZ033>034-036-042>043-049>051-058-059-260300-
   Central Minnesota

CITY           SKY/WX    TMP DP  RH WIND       PRES   REMARKS
ST CLOUD       CLOUDY    60  42  51 NW7       30.12F
SAUK CENTRE    MOCLDY    59  45  58 W5        30.15F
PAYNESVILLE    CLOUDY    61  42  49 W6        30.16S
AITKIN         PTCLDY    54  45  71 NW3       30.12S
PINE RIVER     CLEAR     57  43  58 NW5       30.17S
BRAINERD       CLEAR     57  44  62 N7        30.14S
STAPLES        PTCLDY    57  43  58 N3        30.15R
LONG PRAIRIE   MOCLDY    59  41  51 W6        30.15S
LITTLE FALLS   PTCLDY    59  37  44 NW3       30.13S
LITCHFIELD     MOCLDY    63  48  59 W3        30.15F
BUFFALO        MOCLDY    63  40  43 W8        30.14S
MAPLE LAKE     PTCLDY    62  45  53 W7        30.14F
HUTCHINSON     MOCLDY    61  47  62 W6        30.16F
$$
MNZ037-044-045-052-053-260300-
   East Central Minnesota

CITY           SKY/WX    TMP DP  RH WIND       PRES   REMARKS
PRINCETON      MOCLDY    61  43  51 NW3       30.12S
MORA           CLEAR     55  43  62 N6        30.14S
CAMBRIDGE      PTCLDY    61  45  55 NW3       30.10S
RUSH CITY      PTCLDY    57  43  58 N6        30.12R
MOOSE LAKE     PTCLDY    52  43  71 N6        30.11R
HINCKLEY       CLOUDY    55  45  67 W3        30.11F
CLOQUET        CLEAR     50  43  76 W6        30.11S
MCGREGOR       CLEAR     54  45  71 NW5       30.13S
$$
MNZ071>073-080-081-089-090-097-098-260300-
   Southwest Minnesota

CITY           SKY/WX    TMP DP  RH WIND       PRES   REMARKS
MONTEVIDEO     PTCLDY    61  48  63 E5        30.17S
GRANITE FALLS  CLOUDY    64  49  59 CALM      30.18S
CANBY          CLOUDY    62  46  56 CALM      30.18F
MARSHALL       CLOUDY    60  46  59 NW5       30.18F
REDWOOD FALLS  CLOUDY    61  47  59 CALM      30.16F
OLIVIA         PTCLDY    59  46  63 N6        30.16F
PIPESTONE      MOCLDY    61  45  55 NE5       30.19F
WINDOM         PTCLDY    63  41  45 W15       30.20R
WORTHINGTON    CLOUDY    62  44  51 N13G18    30.22S
JACKSON        CLOUDY    61  43  51 NW8       30.21S
TRACY          MOCLDY    60  49  68 W3        30.18F
SLAYTON        LGT RAIN  56  47  71 N16G23    30.22S
$$
MNZ065>067-074>077-082>085-091>093-260300-
   South Central Minnesota

CITY           SKY/WX    TMP DP  RH WIND       PRES   REMARKS
MANKATO        CLOUDY    61  45  55 NW9       30.17R
NEW ULM        MOCLDY    59  46  63 NW3       30.17S
ST JAMES       CLOUDY    63  43  48 W9        30.18F
FAIRMONT       CLOUDY    63  45  51 NW8       30.18F
GLENCOE        PTCLDY    61  48  62 W6        30.15S
FARIBAULT      CLOUDY    63  41  45 W5        30.15S
OWATONNA       CLOUDY    61  43  51 W6        30.15S
WASECA         CLOUDY    61  41  48 NW6       30.17S
ALBERT LEA     PTCLDY    61  39  44 CALM      30.17S
$$
MNZ078>079-086>088-094>096-260300-
   Southeast Minnesota

CITY           SKY/WX    TMP DP  RH WIND       PRES   REMARKS
ROCHESTER      CLEAR     57  44  62 W8        30.15S
RED WING       CLEAR     61  37  41 NW3       30.10F
STANTON        MOCLDY    61  42  50 W7        30.12F
DODGE CENTER   CLEAR     57  41  54 W5        30.15S
WINONA         PTCLDY    63  43  48 W5        30.11F
AUSTIN         CLEAR     59  39  47 NW6       30.16R
PRESTON        CLEAR     56  43  63 NW6       30.15S
$$
ABBREVIATIONS USED IN REMARKS
   TC - TEMPERATURES IN CELSIUS
  WCI - WIND CHILL INDEX
   HX - HEAT INDEX
  VSB - VISIBILITY
$$




USA.gov is the U.S. government's official web portal to all federal, state and local government web resources and services.